Cambridge Bay, Nunavut

2:39 AM MDT on March 27, 2017 (GMT -0600)
Cambridge Bay

Weather History for CYCB - February, 2013

Change the Weather History Date:

Friday, February 15, 2013

  Actual Average Record
Temperature  
Mean Temperature -40 °F -  
Max Temperature -35 °F -19 °F 3 °F (1999)
Min Temperature -44 °F -33 °F -45 °F (2008)
Degree Days  
Heating Degree Days 104    
Moisture  
Dew Point -48 °F    
Average Humidity 64    
Maximum Humidity 74    
Minimum Humidity 43    
Precipitation  
Precipitation 0.00 in 0.01 in - ()
Sea Level Pressure  
Sea Level Pressure 30.24 in    
Wind  
Wind Speed 9 mph ()    
Max Wind Speed 14 mph    
Max Gust Speed -    
Visibility 3.2 miles    
Events Snow    
Averages and records for this station are not official NWS values.
T = Trace of Precipitation, MM = Missing Value Source: Averaged Metar Reports

Daily Weather History Graph

Daily Weather History Graph

Search for Another Location

Airport or City:

Trip Planner

Search our weather history database for the weather conditions in past years. The results will help you decide how hot, cold, wet, or windy it might be!

Date:

Astronomy

Feb. 15, 2013 Rise Set
Actual Time 8:24 AM MST 4:05 PM MST
Civil Twilight 7:19 AM MST 5:11 PM MST
Nautical Twilight 6:10 AM MST 6:20 PM MST
Astronomical Twilight 5:03 AM MST 7:28 PM MST
Moon 7:36 AM MST (2/15) 12:26 AM MST (2/15)
Length of Visible Light 9h 51m
Length of Day
7h 41m
Waxing Crescent, 31% of the Moon is Illuminated
Feb 15
Waxing Crescent
Feb 17
First Quarter
Feb 25
Full
Mar 4
Last Quarter
Mar 11
New

Hourly Weather History & Observations

Time (MST) Temp. Windchill Dew Point Humidity Pressure Visibility Wind Dir Wind Speed Gust Speed Precip Events Conditions
12:00 AM -43.6 °F -63.3 °F -49.0 °F 74% 30.26 in 6.0 mi NE 5.8 mph - N/A   Ice Crystals
2:00 AM -43.6 °F -63.3 °F -49.0 °F 74% 30.25 in 6.0 mi NE 5.8 mph - N/A   Ice Crystals
3:00 AM -43.6 °F -68.9 °F -49.0 °F 74% 30.24 in 6.0 mi NE 9.2 mph - N/A   Ice Crystals
4:00 AM -43.6 °F -65.4 °F -49.0 °F 74% 30.24 in 6.0 mi NE 6.9 mph - N/A   Ice Crystals
5:00 AM -43 °F - -50 °F 50% 30.23 in 6 mi NE 5.8 mph - - Snow Snow
5:00 AM -43.6 °F -70.4 °F -49.0 °F 74% 30.23 in 6.0 mi NE 10.4 mph - N/A   Ice Crystals
6:00 AM -41.8 °F -68.2 °F -49.0 °F 67% 30.23 in 6.0 mi NE 10.4 mph - N/A   Ice Crystals
7:00 AM -41.8 °F -68.2 °F -49.0 °F 67% 30.22 in 6.0 mi NE 10.4 mph - N/A   Ice Crystals
7:16 AM - - - N/A% - 1.0 mi NE 11.5 mph - N/A   Clear
8:00 AM -41.8 °F -69.5 °F -49.0 °F 67% 30.21 in 1.0 mi NE 11.5 mph - N/A   Clear
9:00 AM -40.0 °F -69.5 °F -47.2 °F 67% 30.20 in 1.0 mi NE 13.8 mph - N/A Snow Low Drifting Snow
10:00 AM -38.2 °F -66.2 °F -47.2 °F 61% 30.20 in 1.0 mi ENE 12.7 mph - N/A Snow Low Drifting Snow
10:10 AM - - - N/A% - 1.5 mi ENE 12.7 mph - N/A   Clear
11:00 AM -39 °F - -46 °F 47% 30.20 in 2 mi NE 11.5 mph - -   Mist
11:00 AM -38.2 °F -65.0 °F -47.2 °F 61% 30.20 in 2.0 mi NE 11.5 mph - N/A   Clear
12:00 PM -36.4 °F -61.5 °F -45.4 °F 61% 30.21 in 1.5 mi ENE 10.4 mph - N/A   Clear
12:16 PM - - - N/A% - 1.2 mi NE 10.4 mph - N/A   Ice Crystals
1:00 PM -36.4 °F -63.9 °F -45.4 °F 61% 30.22 in 1.0 mi NE 12.7 mph - N/A Snow Ice Crystals
2:00 PM -34.6 °F -61.6 °F -43.6 °F 61% 30.22 in 1.0 mi ENE 12.7 mph - N/A Snow Ice Crystals
2:21 PM - - - N/A% - 2.0 mi ENE 9.2 mph - N/A   Ice Crystals
3:00 PM -36.4 °F -56.8 °F -45.4 °F 61% 30.24 in 2.5 mi NNE 6.9 mph - N/A   Ice Crystals
3:34 PM - - - N/A% - 10.0 mi ENE 11.5 mph - N/A   Clear
4:00 PM -38.2 °F -66.2 °F -47.2 °F 61% 30.24 in 10.0 mi NE 12.7 mph - N/A Snow Low Drifting Snow
4:49 PM - - - N/A% - 2.0 mi NE 11.5 mph - N/A   Ice Crystals
5:00 PM -39 °F - -47 °F 43% 30.24 in 2 mi NE 11.5 mph - - Snow Snow
5:00 PM -40.0 °F -67.2 °F -47.2 °F 67% 30.24 in 2.0 mi NE 11.5 mph - N/A   Ice Crystals
6:00 PM -40.0 °F -68.4 °F -47.2 °F 67% 30.25 in 2.0 mi NE 12.7 mph - N/A Snow Ice Crystals
7:00 PM -40.0 °F -65.9 °F -47.2 °F 67% 30.25 in 1.8 mi NE 10.4 mph - N/A   Ice Crystals
7:54 PM - - - N/A% - 2.0 mi ENE 9.2 mph - N/A   Ice Crystals
8:00 PM -40.0 °F -64.5 °F -47.2 °F 67% 30.25 in 2.0 mi ENE 9.2 mph - N/A   Ice Crystals
9:00 PM -38.2 °F -60.7 °F -47.2 °F 61% 30.26 in 2.0 mi ENE 8.1 mph - N/A   Ice Crystals
10:00 PM -41.8 °F -68.2 °F -49.0 °F 67% 30.27 in 2.5 mi NE 10.4 mph - N/A   Ice Crystals
11:00 PM -42 °F - -49 °F 50% 30.28 in 2 mi NE 9.2 mph - - Snow Snow
11:00 PM -41.8 °F -66.7 °F -49.0 °F 67% 30.28 in 2.5 mi NE 9.2 mph - N/A   Ice Crystals